Regional Weather Roundup
Issued by NWS Grand Forks, ND

Home | Current Version | Previous Version | Graphics & Text | Print | Product List | Glossary On
Versions: 1 2 3 4 5 6 7 8 9 10 11 12 13 14 15 16 17 18 19 20 21 22 23 24 25 26 27 28 29 30 31 32 33 34 35 36 37 38 39 40 41 42 43 44 45 46 47 48 49 50
000
ASUS43 KFGF 272110
RWRFGF
PRAIRIE TO PINES  WEATHER ROUNDUP
NATIONAL WEATHER SERVICE EASTERN NORTH DAKOTA/GRAND FORKS ND
300 PM CST SAT DEC 27 2014

 **SATELLITE DATA USED TO AUGMENT SKY COVER AT AUTOMATED STATIONS**
 *****  WEATHER ACROSS EASTERN NORTH DAKOTA  *****

CITY           SKY/WX    TMP DP  RH WIND       PRES   REMARKS
GRAND FORKS    CLOUDY    20  14  77 W5        30.02S WCI  13
GRAND FRKS AFB PTSUNNY   20  17  88 NW3       30.01F
GRAND FRKS NWS   N/A     19 N/A N/A W5          N/A  WCI  13
DEVILS LAKE    CLOUDY    21  14  73 SW8       29.95S WCI  12
FARGO          CLOUDY    24  17  74 SW9       30.04S WCI  14
WAHPETON ARPT  CLEAR     25  18  74 W12       30.06S WCI  14
$$

 ***** WEATHER ACROSS CENTRAL AND WESTERN NORTH DAKOTA  *****

CITY           SKY/WX    TMP DP  RH WIND       PRES   REMARKS
BISMARCK       CLOUDY    30  20  66 W13       29.98F WCI  20
MINOT          MOSUNNY   24  15  68 W12       29.94S WCI  13
JAMESTOWN      CLOUDY    23  17  78 SW6       29.98F WCI  16
MINOT AFB      MOSUNNY   23  19  84 NW12      29.94S WCI  11
GARRISON         N/A     25  17  72 NW18      29.94S WCI  11
WILLISTON      CLOUDY    25  16  68 SW9       29.97F WCI  15
DICKINSON      PTSUNNY   25  16  68 W16       29.94S WCI  12
HETTINGER      PTSUNNY   28  16  60 W23       29.98R WCI  14
$$

 *****  OTHER AIRPORT OBSERVATIONS IN OUR AREA  *****

CITY           SKY/WX    TMP DP  RH WIND       PRES   REMARKS
WALHALLA       FLURRIES  18  18 100 N10       30.00R WCI   6
GRAFTON AIRPOR NOT AVBL
VALLEY CITY AR CLOUDY    23  23 100 W9        30.00S WCI  13
CANDO          MIX PCPN  21  16  79 W6        29.96R WCI  14
CAVALIER APRT  MIX PCPN  19  16  86 CALM      30.00R
GWINNER        CLEAR     27  21  80 SW13      30.04F WCI  16
SHEYENNE NWR     N/A     25  17  72 W9        29.95  WCI  15
ROLLA          LGT SNOW  18  18 100 W3        29.93S
 ***** THE ABOVE OBSERVATIONS ARE NON NWS ARE NOT QUALITY
       CONTROLLED AND MAY MIS-REPORT RAIN FOR SNOW...
$$

  *****  WEATHER ACROSS NORTHERN MINNESOTA  *****

CITY           SKY/WX    TMP DP  RH WIND       PRES   REMARKS
FLAG ISLAND    PTCLDY    12   7  79 W7        29.94S WCI   2
WARROAD        PTCLDY    14   9  79 W12       29.97R WCI   0
ROSEAU         FLURRIES  16  10  79 W8        29.98R WCI   5
HALLOCK          N/A     18  12  79 SW3       30.00S
THF RVR FALLS  CLOUDY    14  10  85 SW7       30.00F WCI   4
BAUDETTE       MOCLDY    13   6  74 SW6       29.95S WCI   4
WASKISH        CLOUDY    12   7  79 CALM      29.99R
CROOKSTON      CLOUDY    18  12  79 W5        30.04S WCI  11
STEPHEN NDAWN    N/A     16  12  86 SW6         N/A  WCI   7
GREENBUSH NDAW   N/A     14  10  85 W9          N/A  WCI   2
$$
  *****  WEATHER ACROSS CENTRAL AND WEST MINNESOTA  *****

CITY           SKY/WX    TMP DP  RH WIND       PRES   REMARKS
FOSSTON        LGT SNOW  12  10  92 SW10      30.01R WCI  -1
BEMIDJI        LGT SNOW  16   8  69 W8        29.98R WCI   5
PARK RAPIDS    CLOUDY    20   9  62 SW9       29.98S WCI   9
ELBOW LAKE     CLOUDY    23  16  76 SW13      30.04F WCI  11
WADENA         CLOUDY    19  10  68 W9        30.01S WCI   9
DETROIT LAKES  CLOUDY    19  16  86 SW8       30.02S WCI   9
MOORHEAD       MOSUNNY   23  19  86 W10       30.05S WCI  12
FERGUS FALLS   CLOUDY    21  12  68 SW10      30.07F WCI  10
MORRIS MN      SUNNY     21  12  68 SW8       30.06F WCI  12
STAPLES        MOSUNNY   21   5  49 W9        30.01S WCI  11
$$
  *****  WEATHER ELSEWHERE ACROSS MINNESOTA  *****

CITY           SKY/WX    TMP DP  RH WIND       PRES   REMARKS
DULUTH         FAIR      22   7  52 W9        29.95R WCI  12
INTRNTL FALLS  CLOUDY    15   6  67 W6        29.95R WCI   6
ELY            CLEAR     18   5  57 W6        29.92R WCI   9
CLOQUET        SUNNY     25   7  46 SW8       29.97R WCI  16
WHEATON        PTSUNNY   25  18  74 W9        30.08F WCI  15
BRAINERD       CLOUDY    23   3  42 SW9       30.01F WCI  13
HIBBING        MOCLDY    21   5  50 W6        29.94F WCI  13
ALEXANDRIA     MOSUNNY   21  12  68 SW10      30.03F WCI  10
SAINT CLOUD    SUNNY     25   9  50 W10       30.06S WCI  15
MINNEAPOLIS    SUNNY     24  14  65 W7        30.08R WCI  16
$$

  *****  WEATHER ACROSS SOUTH DAKOTA  *****

CITY           SKY/WX    TMP DP  RH WIND       PRES   REMARKS
SIOUX FALLS    SUNNY     15   9  76 W7        30.14F WCI   5
BROOKINGS      NOT AVBL
WATERTOWN      CLOUDY    17  12  80 W12       30.06F WCI   4
HURON          CLOUDY    19  12  74 SW5       30.12F WCI  12
SISSETON         N/A     24  16  71 W7        30.05F WCI  16
ABERDEEN       SUNNY     27  18  69 SW10      30.07F WCI  17
MITCHELL       SUNNY     21  13  71 SW7       30.15F WCI  12
PIERRE         SUNNY     26  18  71 SW10      30.08F WCI  16
MOBRIDGE       SUNNY     28  19  69 S7        30.00F WCI  21
RAPID CITY     SUNNY     22  14  71 E3        30.03F
$$

  *****  SOME WEATHER IN NEARBY STATES *****

CITY           SKY/WX    TMP DP  RH WIND       PRES   REMARKS
GLASGOW MT     CLOUDY    30  15  53 SW12      29.96F WCI  20
GREAT FALLS MT MOSUNNY   28  19  69 SW20      29.92F WCI  15
CHEYENNE WY    SUNNY     20   5  52 SW13      30.01F WCI   7
SCOTTSBLUFF NE SUNNY     17   9  70 NW7       30.08F WCI   8
OMAHA NE       MOSUNNY   27  17  66 W8        30.24S WCI  19
DES MOINES IA  PTSUNNY   29  20  69 NW18      30.19R WCI  16
DAVENPORT IA   CLOUDY    31  25  78 W18       30.12R WCI  19
CHICAGO IL     CLOUDY    36  29  75 W21G28    30.01R
EAU CLAIRE WI  CLOUDY    23  17  78 W15       30.04R WCI  10
LA CROSSE WI   CLOUDY    29  23  78 W13       30.06R WCI  19
$$

  *****  SOME NATIONAL WEATHER *****

CITY           SKY/WX    TMP DP  RH WIND       PRES   REMARKS
LA GUARDIA NY  MOCLDY    53  32  44 SW8       30.17R
RALEIGH NC     MOSUNNY   61  37  41 SW8       30.23F
ATLANTA GA     CLOUDY    60  42  51 S3        30.20F
NEW ORLEANS LA CLOUDY    71  67  87 S12       30.05S FOG
OKLAHOMA CITY  PTSUNNY   36  21  54 N14       30.25F
ALBUQUERQUE NM MOSUNNY   36  11  35 SW9       30.20S
SALT LAKE CITY CLOUDY    27  15  61 S8        30.31F WCI  19
LOS ANGELES CA MOSUNNY   59  18  20 W10       30.28F
BOISE ID       CLOUDY    32  19  58 SE12      30.26F WCI  23
SEATTLE WA     CLOUDY    47  44  90 S18G25    30.05F
$$

*** WEATHER ACROSS MANITOBA...SASKATCHEWAN AND ONTARIO ***
                ***ONTARIO***

CITY           SKY/WX    TMP DP  RH WIND       PRES   REMARKS
GERALDTON      FLURRIES  18  14  86 N5        29.84F WCI  11
THUNDER BAY    PTCLDY    19  10  68 NW10G17   29.93R WCI   8
SIOUX LOOKOUT  FLURRIES   5   1  85 SW6       29.90S WCI  -6
TORONTO        MOCLDY    50  41  71 SW12G18   29.91S
BIG TROUT LK   FLURRIES  -4  -8  84 SW3       29.93F
PICKLE LAKE    CLOUDY     0  -6  78 S5        29.86F WCI -10
DRYDEN         FLURRIES   7   5  92 SW6       29.90S WCI  -3
KENORA         FLURRIES   9   3  78 W8        29.91S WCI  -4
$$
                *** MANITOBA***

CITY           SKY/WX    TMP DP  RH WIND       PRES   REMARKS
BRANDON        NOT AVBL
DAUPHIN        FLURRIES   0  -4  85 NE8       30.08R WCI -15
ISLAND LAKE    PTCLDY    -9 -15  77 NW8       29.96R WCI -26
PILOT MOUND      N/A     14  12  92 N7          N/A  WCI   4
THE PAS        NOT AVBL
THOMPSON       MOCLDY   -13 -20  70 NW7       30.03S WCI -29
WINNIPEG       NOT AVBL
$$
                ***SASKATCHEWAN***

CITY           SKY/WX    TMP DP  RH WIND       PRES   REMARKS
ESTEVAN        FLURRIES  18  12  79 NW13      29.96  WCI   4
KINDERSLEY     NOT AVBL
LLOYDMINSTER   NOT AVBL
PRINCE ALBERT  PTCLDY   -11 -17  77 VRB2      30.13S
REGINA         NOT AVBL
YORKTON        SUNNY     -4  -9  77 N8        30.04R WCI -19
N. BATTLEFORD  CLOUDY     3  -2  78 E15       30.04S WCI -15
LA RONGE       NOT AVBL
SASKATOON      NOT AVBL
SWIFT CURRENT  CLOUDY    23  18  80 NW3       29.90R
$$
NOTE: THESE ARE AUTOMATED STATIONS WITH LIMITED QUALITY CONTROL
      "FAIR" INDICATES FEW OR NO CLOUDS BELOW 12,000 FEET WITH NO
      SIGNIFICANT WEATHER AND/OR OBSTRUCTIONS TO VISIBILITY.
      SKY/WX - SKY CONDITION AND SIGNIFICANT WEATHER.
      TMP - AIR TEMPERATURE.    DP   - DEWPOINT TEMPERATURE.
      RH  - RELATIVE HUMIDITY.  PRES - PRESSURE.
      HX  - HEAT INDEX.         WCI  - WIND CHILL INDEX.
$


USA.gov is the U.S. government's official web portal to all federal, state and local government web resources and services.